Location: Unspecified
(47.7467°N, 8.8467°E)
Time: 02:38:20
(UTC+01:00)

ARIANE 6 FM1 Upper Stage - Visible Passes

Search period start: 22 January 2026 00:00
Search period end: 01 February 2026 00:00
Orbit: 522 x 610 km, 62.0° (Epoch: 21 January)

Date Brightness Start Highest point End Pass type
(mag) Time Alt. Az. Time Alt. Az. Time Alt. Az.
22 Jan 3.8 18:34:48 10° S 18:38:02 23° ESE 18:38:36 22° ESE visible
22 Jan 4.8 20:12:51 10° WSW 20:14:39 24° WSW 20:14:39 24° WSW visible
23 Jan 3.4 18:34:24 10° S 18:38:03 32° ESE 18:39:21 26° E visible
23 Jan 4.7 20:13:14 10° WSW 20:15:25 26° W 20:15:25 26° W visible
24 Jan 2.9 18:34:11 10° SSW 18:38:06 47° SE 18:40:01 26° ENE visible
24 Jan 4.7 20:13:42 10° W 20:16:04 25° WNW 20:16:04 25° WNW visible
25 Jan 2.5 18:34:07 10° SSW 18:38:10 68° SE 18:40:36 22° NE visible
25 Jan 4.8 20:14:15 10° W 20:16:38 22° NW 20:16:38 22° NW visible
26 Jan 2.6 18:34:11 10° SW 18:38:15 85° NW 18:41:05 19° NE visible
26 Jan 5.0 20:14:52 10° WNW 20:17:07 18° NW 20:17:07 18° NW visible
27 Jan 3.0 18:34:21 10° SW 18:38:23 61° NW 18:41:29 16° NE visible
27 Jan 5.1 20:15:32 10° WNW 20:17:31 16° NNW 20:17:31 16° NNW visible
28 Jan 3.5 18:34:36 10° WSW 18:38:31 44° NW 18:41:50 13° NNE visible
28 Jan 5.2 20:16:15 10° NW 20:17:51 14° NNW 20:17:51 14° NNW visible
29 Jan 3.9 18:34:57 10° WSW 18:38:40 34° NW 18:42:07 11° NNE visible
29 Jan 5.3 20:17:00 10° NW 20:18:08 12° NNW 20:18:08 12° NNW visible
30 Jan 4.3 18:35:24 10° W 18:38:51 26° NNW 18:42:17 10° NNE visible
30 Jan 5.4 20:17:44 10° NNW 20:18:22 11° NNW 20:18:22 11° NNW visible
31 Jan 4.6 18:35:54 10° W 18:39:03 22° NNW 18:42:12 10° NNE visible
31 Jan 5.5 20:18:27 10° NNW 20:18:33 10° NNW 20:18:33 10° NNW visible
